Location: Unspecified
(41.1850°N, 73.2650°W)
Time: 17:30:25
(UTC+00:00)

Cosmos 2297 Rocket - Pass Details

Date: 14 December 2025
Orbit: 837 x 844 km, 71.0° (Epoch: 15 January)

Event Time Altitude Azimuth Distance (km) Brightness Sun altitude
Rises 22:05:39 0° 329° (NNW) 3,409 5.5 -7.6°
Reaches altitude 10° 22:08:14 10° 322° (NW) 2,470 4.8 -8.1°
Maximum altitude 22:13:29 40° 254° (WSW) 1,221 3.8 -9.0°
Drops below altitude 10° 22:18:42 10° 186° (S) 2,454 5.0 -9.9°
Sets 22:21:15 0° 179° (S) 3,384 5.6 -10.3°
